Flight Track Log - Related Links

Times and Time Zones

All times are in EDT time to prevent confusion due to time zone crossing. See the EJA929 flight status page for this flight to view local times or setup timezone preferences in your user account.

Time Position Orientation Groundspeed Altitude Reporting Facility
EDT Latitude Longitude Course Direction KTS MPH feet Rate Location/Type
19:37 42.5058 -114.5208 36° Northeast 192 221 7,000  Level Salt Lake Center
19:38 42.5031 -114.4328 92° East 226 260 11,000 3,339 Climbing Salt Lake Center
19:39 42.5125 -114.3308 83° East 276 318 13,900 2,565 Climbing Salt Lake Center
19:40 42.5306 -114.1806 81° East 387 445 16,300 1,984 Climbing Salt Lake Center
19:41 42.7056 -113.7166 48° Northeast  Level FlightAware Approximate
19:42 42.7909 -113.6258 36° Northeast  Level FlightAware Approximate
19:42 42.5542 -114.0236 78° East 408 470 18,000  Level Salt Lake Center
19:43 42.8784 -113.5384 36° Northeast  Level FlightAware Approximate
19:43 42.5889 -113.8656 73° East 421 484 20,300  Level Salt Lake Center
19:44 42.6764 -113.7581 42° Northeast 396 456 23,500 2,952 Climbing Salt Lake Center
19:45 42.7575 -113.6714 38° Northeast 390 449 26,400 1,694 Climbing Salt Lake Center
19:46 42.8575 -113.5647 38° Northeast 407 468 27,000 290 Climbing Salt Lake Center
19:47 42.9589 -113.4561 38° Northeast 476 548 27,000  Level Salt Lake Center
19:48 43.0658 -113.3397 38° Northeast 507 583 27,000  Level Salt Lake Center
19:49 43.1928 -113.2028 38° Northeast 518 596 27,000  Level Salt Lake Center
19:50 43.3036 -113.0817 38° Northeast 529 609 27,000  Level Salt Lake Center
19:51 43.4328 -112.9394 39° Northeast 533 613 27,000  Level Salt Lake Center
19:52 43.5436 -112.8167 39° Northeast 534 615 27,000  Level Salt Lake Center
19:53 43.6722 -112.6717 39° Northeast 535 616 27,000  Level Salt Lake Center
19:54 43.7850 -112.5508 38° Northeast 535 616 27,000  Level Salt Lake Center
19:55 43.9117 -112.4058 39° Northeast 529 609 27,000  Level Salt Lake Center
19:56 44.0225 -112.2811 39° Northeast 534 615 27,000  Level Salt Lake Center
19:57 44.1622 -112.1589 32° Northeast 535 616 27,000  Level Salt Lake Center
19:58 44.2881 -112.0756 25° Northeast 526 605 27,000  Level Salt Lake Center
19:59 44.4150 -111.9917 25° Northeast 525 604 27,000 -919 Level Salt Lake Center
20:00 44.5631 -111.8942 25° Northeast 523 602 25,100 -2,323 Descending Salt Lake Center
20:01 44.6819 -111.8153 25° Northeast 497 572 22,200 -3,581 Descending Salt Lake Center
20:02 44.8128 -111.7258 26° Northeast 467 537 17,700 -3,871 Descending Salt Lake Center
20:03 44.9197 -111.6531 26° Northeast 455 524 14,200 -1,805 Descending Salt Lake Center
20:04 45.0133 -111.5894 26° Northeast 413 475 14,000 -98 Descending Salt Lake Center
20:05 45.1194 -111.5183 25° Northeast 381 438 14,000  Level Salt Lake Center
20:06 45.2072 -111.4578 26° Northeast 388 447 14,000  Level Salt Lake Center
20:07 45.3297 -111.3744 26° Northeast 403 464 14,000  Level Salt Lake Center
20:08 45.4253 -111.3078 26° Northeast 390 449 14,000  Level Salt Lake Center
20:09 45.5128 -111.2475 26° Northeast 357 411 14,000 -968 Level Salt Lake Center
20:10 45.5839 -111.1981 26° Northeast 296 341 12,000 -2,195 Descending Salt Lake Center
20:11 45.6478 -111.1542 26° Northeast 276 318 9,500 -2,341 Descending Salt Lake Center
20:12 45.6917 -111.1222 27° Northeast 212 244 7,200 -1,839 Descending Salt Lake Center
20:13 45.7394 -111.1119 North 165 190 5,700 -1,306 Descending Salt Lake Center
20:15 45.7694 -111.1406 326° Northwest 141 162 4,500 -1,161 Descending Salt Lake Center

Login

Don't have an account? Register now (free) for customized features, flight alerts, and more!